Weather in Ilnitsa

Ukraine / Zakarpattia District     48°21′10″N   23°04′25″E
temp.,
°C
wind,
m/s
gust,
m/s
humid.,
%
clouds,
%
prec.,
mm/h
press.,
hPa
HPBL,
m
22 october, fri
fri2200:00+14wsw2377100 0.6 101174
03:00+13sw2469100 0.7 101395
06:00+11ssw347772 0.0 101471
09:00+10s247551 0.0 1015112
12:00+16wsw694895 0.0 10161465
15:00+17wsw7941100 0.0 10151653
18:00+14sw6105399 0.0 1016696
21:00+12sw51169100 0.1 1018616
23 october, sat
sat2300:00+11sw41177100 0.2 1018967
03:00+8wsw24919 0.2 101972
06:00+6wsw11955 0.1 102012
09:00+6ssw23897 0.1 102292
12:00+10wsw235280 0.0 10231148
15:00+11nw3343100 0.0 10231460
18:00+10sw114860 0.0 102310
21:00+6nne225950 0.0 102526
24 october, sun
sun2400:00+5ene11765 0.0 102711
03:00+3nne11813 0.0 102811
06:00+2ne11835 0.0 102910
09:00+3nne11783 0.0 103117
12:00+10n33455 0.0 10321367
15:00+11nnw34355 0.0 10311538
18:00+8nnw22462 0.0 103113
21:00+4nne22615 0.0 103315
25 october, mon
mon2500:00+3ene226768 0.0 103313
03:00+2ene226925 0.0 103312
06:00+2ene227059 0.0 103314
09:00+2e22675 0.0 103327
12:00+9se22445 0.0 1032463
15:00+12sse22345 0.0 1030835
18:00+9ene11455 0.0 102910
21:00+6ene22535 0.0 102911
26 october, tue
tue2600:00+5ene22595 0.0 102913
03:00+4e22615 0.0 102813
06:00+4ene21605 0.0 102710
09:00+5e115890 0.0 102713
12:00+11s1141100 0.0 1027381
15:00+13s1234100 0.0 1026723
18:00+10se0044100 0.0 102510
21:00+8ene1149100 0.0 102610